LEMUR-2-ALEXANDER (43559 NORAD) Tracking and Keplerian Element Data

This shows tracking and keplerian element data for the satellite.

Feedback or suggestion? Click here.




ElementValue
Catalog43559
NameLEMUR-2-ALEXANDER
Epoch Orbit1897
Epoch Day323.109258
Epoch Year2018
RAAN350.8763
Inclination51.6413
Eccentricity0.0008205
Argument of Perigee38.9506
Mean Anonmoly321.2063
Mean Motion15.28330878
Decay Rate2.804E-05
L11 43559U 18046F 18323.10925800 .00002804 00000-0 11280-3 0 9996
L22 43559 51.6413 350.8763 0008205 38.9506 321.2063 15.28330878 18973

Live tracking and technical data element details for LEMUR-2-ALEXANDER (NORAD 43559). LEMUR-2-ALEXANDER can be tracked NOW for your location showing map with azimuth and elevation plus other details from your city location.

Track the satellite on the map from your city or location and see movement details for azimuth, elevation, latitude, longitude, range, height, and movement on the map or in text.







IsCatalogInMostPopularTable: catalog: 43559, numindb: 43
Update: records affected: 1



GetName: 43559 LEMUR-2-ALEXANDER

Hit Count: updated at: Tue, 20 Nov 2018 11:22:32 GMT